�������l�o���
Date,Time,MP-1(��Sv/h),MP-2(��Sv/h),MP-3(��Sv/h),MP-4(��Sv/h),MP-5(��Sv/h),MP-6(��Sv/h),MP-7(��Sv/h),MP-8(��Sv/h),����,����(m/s),���J
2023/05/04,00:00,0.567,0.830,0.499,1.036,0.736,0.327,0.580,0.547,��,1.7,��
2023/05/04,00:10,0.565,0.830,0.498,1.039,0.735,0.326,0.583,0.546,��쐼,1.5,��
2023/05/04,00:20,0.568,0.829,0.501,1.037,0.735,0.326,0.582,0.547,��쐼,2.8,��
2023/05/04,00:30,0.566,0.827,0.500,1.037,0.737,0.327,0.583,0.546,��쐼,2.3,��
2023/05/04,00:40,0.566,0.828,0.499,1.038,0.736,0.325,0.582,0.546,��쐼,2.3,��
2023/05/04,00:50,0.566,0.829,0.500,1.038,0.735,0.326,0.581,0.547,��쐼,2.2,��
2023/05/04,01:00,0.566,0.828,0.500,1.041,0.736,0.326,0.582,0.546,�쐼,1.4,��
2023/05/04,01:10,0.566,0.829,0.500,1.038,0.735,0.326,0.583,0.546,�쐼,1.5,��
2023/05/04,01:20,0.566,0.829,0.498,1.040,0.737,0.326,0.582,0.546,�쐼,2.0,��
2023/05/04,01:30,0.568,0.828,0.500,1.038,0.736,0.326,0.581,0.546,�쐼,3.3,��
2023/05/04,01:40,0.566,0.830,0.498,1.039,0.737,0.326,0.582,0.546,�쐼,2.9,��
2023/05/04,01:50,0.565,0.830,0.499,1.037,0.734,0.325,0.582,0.546,�쐼,2.3,��
2023/05/04,02:00,0.567,0.827,0.500,1.038,0.733,0.327,0.580,0.547,�쐼,2.0,��
2023/05/04,02:10,0.567,0.829,0.498,1.038,0.735,0.327,0.581,0.546,�쐼,2.3,��
2023/05/04,02:20,0.564,0.827,0.498,1.038,0.735,0.326,0.581,0.546,��쐼,2.5,��
2023/05/04,02:30,0.567,0.827,0.499,1.038,0.735,0.325,0.582,0.546,��쐼,2.8,��
2023/05/04,02:40,0.567,0.828,0.500,1.038,0.734,0.326,0.583,0.547,���쐼,0.9,��
2023/05/04,02:50,0.566,0.829,0.499,1.039,0.734,0.326,0.581,0.547,��,0.8,��
2023/05/04,03:00,0.565,0.831,0.499,1.038,0.735,0.327,0.582,0.545,-,CALM,��
2023/05/04,03:10,0.565,0.826,0.501,1.040,0.735,0.326,0.581,0.547,��,1.1,��
2023/05/04,03:20,0.566,0.827,0.499,1.040,0.734,0.327,0.582,0.546,��,1.2,��
2023/05/04,03:30,0.566,0.829,0.499,1.038,0.736,0.326,0.582,0.546,��쐼,1.7,��
2023/05/04,03:40,0.565,0.829,0.499,1.039,0.733,0.326,0.582,0.547,�쐼,2.0,��
2023/05/04,03:50,0.566,0.827,0.499,1.038,0.736,0.327,0.581,0.546,��쐼,0.9,��
2023/05/04,04:00,0.567,0.825,0.498,1.036,0.736,0.326,0.583,0.547,�쐼,0.9,��
2023/05/04,04:10,0.568,0.828,0.498,1.041,0.736,0.326,0.581,0.546,���k��,0.8,��
2023/05/04,04:20,0.566,0.827,0.499,1.038,0.736,0.326,0.583,0.547,�k�k��,0.9,��
2023/05/04,04:30,0.565,0.827,0.498,1.039,0.734,0.325,0.582,0.546,�k,0.8,��
2023/05/04,04:40,0.565,0.827,0.499,1.036,0.736,0.325,0.582,0.547,�k,2.3,��
2023/05/04,04:50,0.566,0.826,0.499,1.037,0.736,0.325,0.582,0.547,�k��,1.4,��
2023/05/04,05:00,0.565,0.827,0.498,1.041,0.737,0.326,0.581,0.546,�k��,2.5,��
2023/05/04,05:10,0.566,0.828,0.499,1.040,0.736,0.326,0.582,0.546,�k��,2.5,��
2023/05/04,05:20,0.566,0.827,0.499,1.038,0.735,0.326,0.581,0.546,�k��,4.5,��
2023/05/04,05:30,0.564,0.828,0.500,1.038,0.735,0.326,0.580,0.548,�k��,7.0,��
2023/05/04,05:40,0.567,0.827,0.499,1.039,0.733,0.325,0.581,0.545,�k��,8.0,��
2023/05/04,05:50,0.566,0.828,0.499,1.038,0.735,0.326,0.582,0.546,�k��,7.7,��
2023/05/04,06:00,0.566,0.827,0.501,1.037,0.737,0.326,0.581,0.546,�k��,7.9,��
2023/05/04,06:10,0.566,0.829,0.500,1.041,0.735,0.326,0.583,0.547,�k��,6.4,��
2023/05/04,06:20,0.567,0.830,0.500,1.039,0.736,0.328,0.584,0.548,�k��,3.7,��
2023/05/04,06:30,0.567,0.830,0.500,1.039,0.736,0.327,0.582,0.547,���k��,3.3,��
2023/05/04,06:40,0.567,0.827,0.499,1.038,0.736,0.326,0.584,0.547,�k��,2.3,��
2023/05/04,06:50,0.566,0.829,0.500,1.041,0.736,0.326,0.583,0.547,���k��,3.0,��
2023/05/04,07:00,0.568,0.827,0.499,1.039,0.734,0.327,0.583,0.547,�k��,1.5,��
2023/05/04,07:10,0.568,0.828,0.501,1.041,0.732,0.324,0.583,0.547,���k��,2.0,��
2023/05/04,07:20,0.565,0.826,0.500,1.042,0.733,0.327,0.583,0.547,�k��,1.5,��
2023/05/04,07:30,0.568,0.826,0.501,1.042,0.737,0.323,0.583,0.547,�k,1.9,��
2023/05/04,07:40,0.566,0.827,0.501,1.040,0.734,0.324,0.582,0.549,�k��,3.4,��
2023/05/04,07:50,0.567,0.826,0.500,1.041,0.737,0.326,0.584,0.549,�k��,2.6,��
2023/05/04,08:00,0.566,0.829,0.500,1.041,0.738,0.326,0.583,0.547,�k��,2.5,��
2023/05/04,08:10,0.564,0.827,0.502,1.042,0.734,0.324,0.582,0.547,��,2.2,��
2023/05/04,08:20,0.566,0.829,0.500,1.041,0.737,0.325,0.584,0.547,���k��,1.5,��
2023/05/04,08:30,0.565,0.830,0.501,1.041,0.739,0.325,0.580,0.546,�쓌,1.5,��
2023/05/04,08:40,0.566,0.831,0.501,1.043,0.736,0.325,0.581,0.545,���쓌,1.7,��
2023/05/04,08:50,0.566,0.828,0.501,1.040,0.738,0.325,0.581,0.545,���쓌,1.4,��
2023/05/04,09:00,0.569,0.830,0.501,1.039,0.736,0.325,0.582,0.547,���쓌,2.0,��
2023/05/04,09:10,0.566,0.827,0.500,1.040,0.735,0.326,0.582,0.545,�쓌,2.3,��
2023/05/04,09:20,0.568,0.830,0.500,1.042,0.736,0.326,0.581,0.547,��쓌,2.8,��
2023/05/04,09:30,0.566,0.831,0.500,1.042,0.736,0.327,0.583,0.546,�쓌,2.9,��
2023/05/04,09:40,0.567,0.831,0.500,1.044,0.737,0.326,0.580,0.547,��쓌,3.4,��
2023/05/04,09:50,0.568,0.831,0.499,1.043,0.736,0.325,0.581,0.546,��쓌,3.1,��
2023/05/04,10:00,0.567,0.830,0.501,1.043,0.736,0.326,0.583,0.545,��쓌,5.2,��
2023/05/04,10:10,0.568,0.832,0.500,1.044,0.736,0.326,0.582,0.548,��,4.6,��
2023/05/04,10:20,0.568,0.832,0.499,1.042,0.734,0.328,0.582,0.547,��쓌,4.5,��
2023/05/04,10:30,0.568,0.830,0.500,1.041,0.736,0.327,0.582,0.547,��쓌,4.8,��
2023/05/04,10:40,0.569,0.833,0.500,1.043,0.735,0.326,0.583,0.545,��쓌,5.3,��
2023/05/04,10:50,0.568,0.829,0.501,1.043,0.736,0.326,0.583,0.547,��쓌,6.6,��
2023/05/04,11:00,0.567,0.830,0.501,1.044,0.739,0.327,0.583,0.546,��쓌,5.5,��
2023/05/04,11:10,0.568,0.833,0.501,1.042,0.737,0.326,0.583,0.547,�쓌,6.0,��
2023/05/04,11:20,0.569,0.830,0.500,1.043,0.740,0.327,0.583,0.547,��쓌,6.9,��
2023/05/04,11:30,0.568,0.830,0.500,1.038,0.738,0.328,0.582,0.546,��쓌,7.2,��
2023/05/04,11:40,0.568,0.831,0.499,1.042,0.739,0.326,0.582,0.546,��쓌,7.6,��
2023/05/04,11:50,0.569,0.831,0.500,1.041,0.738,0.327,0.581,0.546,��쓌,8.2,��
2023/05/04,12:00,0.568,0.830,0.500,1.041,0.740,0.326,0.581,0.547,��쓌,7.7,��
2023/05/04,12:10,0.569,0.833,0.502,1.042,0.740,0.327,0.584,0.545,��쓌,8.2,��
2023/05/04,12:20,0.570,0.833,0.502,1.043,0.740,0.327,0.582,0.546,��쓌,7.6,��
2023/05/04,12:30,0.569,0.834,0.501,1.040,0.740,0.327,0.583,0.546,��쓌,9.4,��
2023/05/04,12:40,0.569,0.834,0.502,1.039,0.739,0.328,0.583,0.547,��쓌,9.6,��
2023/05/04,12:50,0.570,0.831,0.501,1.041,0.741,0.328,0.582,0.546,��쓌,9.1,��
2023/05/04,13:00,0.570,0.832,0.502,1.041,0.740,0.326,0.582,0.546,��쓌,9.2,��
2023/05/04,13:10,0.571,0.831,0.502,1.041,0.740,0.328,0.581,0.547,��쓌,10.2,��
2023/05/04,13:20,0.569,0.833,0.502,1.044,0.742,0.327,0.583,0.547,��쓌,9.5,��
2023/05/04,13:30,0.569,0.832,0.501,1.044,0.741,0.327,0.583,0.546,��,7.2,��
2023/05/04,13:40,0.569,0.831,0.503,1.044,0.740,0.326,0.582,0.546,��쓌,7.5,��
2023/05/04,13:50,0.570,0.834,0.503,1.044,0.741,0.328,0.583,0.545,��쓌,9.8,��
2023/05/04,14:00,0.570,0.834,0.502,1.043,0.740,0.328,0.581,0.547,��쓌,8.1,��
2023/05/04,14:10,0.569,0.835,0.501,1.047,0.741,0.329,0.581,0.546,��쓌,8.9,��
2023/05/04,14:20,0.569,0.833,0.502,1.042,0.740,0.327,0.583,0.547,��쓌,6.8,��
2023/05/04,14:30,0.569,0.834,0.501,1.045,0.741,0.328,0.582,0.548,��쓌,7.4,��
2023/05/04,14:40,0.568,0.834,0.501,1.043,0.741,0.328,0.583,0.546,��쓌,6.3,��
2023/05/04,14:50,0.570,0.835,0.502,1.044,0.740,0.328,0.583,0.546,��쓌,6.3,��
2023/05/04,15:00,0.570,0.833,0.501,1.042,0.742,0.328,0.581,0.547,��쓌,8.0,��
2023/05/04,15:10,0.569,0.833,0.501,1.041,0.741,0.328,0.582,0.547,��쓌,8.0,��
2023/05/04,15:20,0.569,0.833,0.501,1.044,0.740,0.326,0.583,0.547,�쓌,7.1,��
2023/05/04,15:30,0.570,0.834,0.501,1.041,0.741,0.327,0.583,0.546,��쓌,8.1,��
2023/05/04,15:40,0.570,0.835,0.502,1.041,0.741,0.327,0.583,0.547,��쓌,7.5,��
2023/05/04,15:50,0.570,0.833,0.501,1.042,0.742,0.328,0.581,0.548,��쓌,9.1,��
2023/05/04,16:00,0.569,0.836,0.502,1.042,0.741,0.327,0.584,0.547,��쓌,10.2,��
2023/05/04,16:10,0.570,0.834,0.501,1.044,0.741,0.327,0.584,0.547,��쓌,10.2,��
2023/05/04,16:20,0.569,0.833,0.502,1.043,0.741,0.326,0.582,0.547,��쓌,8.3,��
2023/05/04,16:30,0.571,0.833,0.503,1.043,0.739,0.327,0.583,0.547,��쓌,11.0,��
2023/05/04,16:40,0.570,0.831,0.502,1.044,0.740,0.328,0.584,0.547,��쓌,10.3,��
2023/05/04,16:50,0.569,0.832,0.500,1.041,0.741,0.327,0.584,0.545,��쓌,10.0,��
2023/05/04,17:00,0.570,0.833,0.503,1.046,0.741,0.328,0.584,0.548,��쓌,10.2,��
2023/05/04,17:10,0.571,0.832,0.502,1.044,0.741,0.328,0.582,0.547,��쓌,9.8,��
2023/05/04,17:20,0.569,0.835,0.502,1.044,0.740,0.327,0.584,0.546,��,8.0,��
2023/05/04,17:30,0.570,0.836,0.501,1.042,0.740,0.328,0.584,0.548,��,6.7,��
2023/05/04,17:40,0.571,0.833,0.501,1.043,0.740,0.327,0.584,0.547,��,7.7,��
2023/05/04,17:50,0.570,0.836,0.500,1.044,0.740,0.328,0.585,0.549,��,7.6,��
2023/05/04,18:00,0.569,0.836,0.501,1.046,0.742,0.329,0.583,0.549,��,7.4,��
2023/05/04,18:10,0.569,0.837,0.501,1.047,0.741,0.327,0.581,0.548,��,7.4,��
2023/05/04,18:20,0.569,0.837,0.501,1.048,0.740,0.328,0.584,0.550,��,8.2,��
2023/05/04,18:30,0.568,0.837,0.502,1.045,0.742,0.327,0.583,0.550,��,7.2,��
2023/05/04,18:40,0.569,0.836,0.500,1.046,0.742,0.328,0.584,0.548,��,6.6,��
2023/05/04,18:50,0.570,0.837,0.501,1.047,0.743,0.328,0.585,0.549,��,6.7,��
2023/05/04,19:00,0.570,0.836,0.504,1.048,0.743,0.329,0.584,0.550,��,6.2,��
2023/05/04,19:10,0.570,0.838,0.502,1.046,0.745,0.328,0.585,0.549,��,5.8,��
2023/05/04,19:20,0.572,0.835,0.504,1.045,0.743,0.328,0.587,0.550,��쐼,4.4,��
2023/05/04,19:30,0.572,0.835,0.502,1.047,0.743,0.329,0.584,0.548,�쐼,3.1,��
2023/05/04,19:40,0.570,0.837,0.502,1.048,0.742,0.329,0.584,0.549,�쐼,2.9,��
2023/05/04,19:50,0.571,0.836,0.504,1.046,0.744,0.329,0.584,0.548,��,2.3,��
2023/05/04,20:00,0.571,0.835,0.504,1.046,0.743,0.328,0.585,0.548,��,0.9,��
2023/05/04,20:10,0.573,0.837,0.505,1.048,0.744,0.329,0.585,0.550,-,CALM,��
2023/05/04,20:20,0.572,0.837,0.504,1.045,0.743,0.329,0.584,0.548,��,1.1,��
2023/05/04,20:30,0.571,0.836,0.503,1.046,0.743,0.330,0.585,0.549,��쐼,0.9,��
2023/05/04,20:40,0.572,0.836,0.504,1.045,0.744,0.329,0.585,0.549,�쐼,0.6,��
2023/05/04,20:50,0.572,0.835,0.503,1.049,0.743,0.328,0.584,0.550,�쐼,0.6,��
2023/05/04,21:00,0.573,0.837,0.504,1.046,0.743,0.330,0.584,0.550,���쐼,1.7,��
2023/05/04,21:10,0.572,0.836,0.504,1.043,0.742,0.328,0.583,0.549,���k��,1.5,��
2023/05/04,21:20,0.570,0.835,0.503,1.047,0.744,0.329,0.583,0.549,���k��,1.9,��
2023/05/04,21:30,0.572,0.837,0.504,1.047,0.744,0.328,0.586,0.548,���k��,2.6,��
2023/05/04,21:40,0.572,0.837,0.503,1.045,0.742,0.329,0.584,0.548,��,2.5,��
2023/05/04,21:50,0.573,0.836,0.504,1.048,0.742,0.329,0.584,0.549,��,3.9,��
2023/05/04,22:00,0.574,0.835,0.503,1.048,0.744,0.328,0.584,0.548,���쐼,4.1,��
2023/05/04,22:10,0.572,0.835,0.504,1.048,0.743,0.329,0.584,0.548,�쐼,4.3,��
2023/05/04,22:20,0.572,0.835,0.504,1.046,0.744,0.330,0.586,0.548,���쐼,4.6,��
2023/05/04,22:30,0.570,0.837,0.505,1.047,0.744,0.330,0.585,0.548,���쐼,4.8,��
2023/05/04,22:40,0.570,0.837,0.503,1.047,0.743,0.328,0.586,0.547,��,7.2,��
2023/05/04,22:50,0.572,0.834,0.503,1.049,0.742,0.330,0.584,0.548,��,7.1,��
2023/05/04,23:00,0.569,0.833,0.503,1.049,0.740,0.328,0.587,0.549,��,6.6,��
2023/05/04,23:10,0.572,0.836,0.503,1.047,0.744,0.328,0.585,0.550,��,4.9,��
2023/05/04,23:20,0.573,0.835,0.503,1.045,0.743,0.329,0.586,0.548,��,4.8,��
2023/05/04,23:30,0.572,0.836,0.504,1.046,0.743,0.327,0.587,0.549,��,2.3,��
2023/05/04,23:40,0.571,0.834,0.505,1.047,0.743,0.328,0.586,0.548,-,CALM,��
2023/05/04,23:50,0.571,0.834,0.503,1.049,0.741,0.329,0.586,0.548,�쓌,1.1,��
